Location: Eastchurch
(51.4000°N, 0.8667°E)
Time: 20:53:24
(UTC+00:00)

CSL-04 Rocket - Pass Details

Date: 19 January 2026
Orbit: 804 x 859 km, 98.7° (Epoch: 16 February)

Event Time Altitude Azimuth Distance (km) Brightness Sun altitude
Exits shadow 18:35:34 32° 47° (NE) 1,384 4.4 -20.0°
Drops below altitude 10° 18:39:39 10° 360° (N) 2,420 6.0 -20.6°
Sets 18:42:10 0° 351° (N) 3,349 6.9 -21.0°
